GFSSGP_con_lsi_057.txt.gz
Lid_Strength_Index
2 4 5 6 9 10 12 10 9 8 8 7 7 8 8 7 8 9 3 1 0 -0 -0 -1 -1 -1 -1 -2 -1 -1 -1 -2 -1 -1 -1 -1 -1 -1 -2 -2 -2 -2 -2 -2 -1 -1 -0 -1 -1
4 4 6 9 12 14 12 11 9 8 7 7 8 7 7 7 5 4 2 1 -0 -0 -1 -1 -0 -1 -1 -2 -2 -1 -1 -2 -1 -1 -1 -2 -2 -1 -1 -2 -2 -2 -2 -2 -1 -0 0 0 -1
4 6 7 11 14 14 12 10 10 8 8 7 8 7 7 6 5 3 2 0 -0 -0 -1 -1 -0 -1 -1 -1 -1 -1 -2 -2 -2 -1 -1 -2 -2 -2 -2 -2 -2 -2 -2 -2 -1 -0 0 1 -0
5 7 9 12 12 11 10 10 9 9 8 8 8 8 7 5 5 3 1 -0 -0 -0 -1 -0 -1 -1 -1 -1 -2 -2 -2 -2 -2 -2 -2 -2 -2 -2 -1 -1 -1 -2 -2 -2 -1 -0 0 1 -0
8 9 12 12 12 11 11 10 9 9 9 8 8 8 7 5 2 1 0 -0 0 -0 -1 -1 -0 -1 -1 -1 -2 -1 -1 -1 -1 -2 -2 -2 -2 -1 -1 -1 -1 -2 -2 -1 -0 0 0 0 -0
9 11 13 14 12 11 10 10 9 9 9 8 8 8 7 6 3 1 0 0 0 -0 -1 -1 1 1 -0 -1 -1 -1 -1 -1 -1 -1 -2 -2 -2 -2 -1 -2 -1 -2 -1 -2 -1 0 1 1 -0
10 13 14 14 13 12 10 10 10 9 10 9 7 9 7 7 6 1 2 1 0 0 -0 -1 -0 0 2 1 -0 -1 -1 -1 -1 -1 -1 -1 -2 -1 -1 -1 -2 -1 -1 -1 -2 -1 -0 1 1
10 12 13 14 13 12 10 10 9 9 9 8 7 9 8 8 5 2 2 2 1 1 1 0 -0 -0 -1 -1 2 1 0 -0 -0 -0 0 1 0 0 0 -0 -1 -1 -1 -1 -2 -1 0 1 2
9 14 15 14 13 12 10 10 9 9 9 9 9 9 9 7 6 5 5 4 3 3 3 1 0 -0 -1 -1 1 2 1 1 1 1 2 2 -0 0 0 0 -1 -1 -1 -1 -1 -1 1 5 6
12 14 14 12 12 11 10 10 10 10 10 10 9 9 9 9 9 10 10 9 9 9 8 6 2 0 -0 -0 -1 -0 -0 -1 -1 -1 -0 0 0 1 1 1 0 -1 0 -1 -1 -0 2 6 7
11 13 13 11 11 10 10 11 10 10 11 10 10 11 10 10 10 10 10 10 10 10 9 8 7 2 1 -0 -1 -0 -0 -0 -1 -1 -1 0 1 2 1 1 1 1 2 1 1 2 3 5 7
12 10 11 10 10 10 11 10 11 10 11 11 11 11 11 12 12 12 12 11 11 10 9 8 7 6 0 -0 0 -1 -0 0 -0 0 1 1 2 2 2 2 2 2 1 2 3 3 4 4 7
11 11 11 10 11 11 11 11 11 13 11 11 11 12 13 13 13 12 12 11 11 11 10 9 8 6 0 1 0 -0 -0 -0 0 1 1 1 2 2 3 2 2 2 2 3 3 4 3 4 5
11 11 11 11 11 11 11 12 11 12 11 12 12 13 13 14 14 13 13 13 12 11 10 9 6 4 0 1 1 1 0 0 0 0 1 1 1 1 3 3 3 3 3 4 4 4 3 4 6
12 13 12 12 12 12 11 13 14 12 12 14 14 14 14 14 14 14 14 14 13 13 11 9 5 1 0 2 3 4 5 5 5 4 4 2 2 2 2 3 3 4 4 5 5 6 5 5 6
13 14 14 12 12 12 12 14 14 13 13 15 15 15 14 14 14 14 14 14 13 13 12 10 5 4 5 6 8 8 8 8 8 7 7 6 4 3 3 3 5 4 5 5 5 5 5 6 7
15 16 16 14 13 13 13 14 15 13 15 16 16 15 15 15 14 14 14 14 13 13 12 11 9 8 8 8 8 9 10 10 9 9 9 9 7 5 5 5 5 4 5 6 5 6 7 6 7
17 18 17 17 15 14 15 14 16 15 16 17 17 16 16 16 16 15 15 14 14 13 12 11 10 9 8 9 10 10 11 11 12 12 12 11 10 8 7 7 7 7 7 8 8 8 8 9 9
16 17 17 16 15 15 15 15 16 16 16 17 17 17 16 16 15 15 15 15 14 14 13 13 12 11 10 11 11 12 14 14 14 14 14 13 13 12 11 11 10 9 10 9 9 9 9 9 9
17 18 18 16 15 15 16 16 17 17 17 17 17 17 16 16 16 16 16 16 16 15 14 14 13 13 12 12 13 13 14 15 15 15 15 15 14 14 14 13 13 13 12 12 11 10 10 10 10
18 18 18 17 16 16 17 17 18 17 17 16 16 16 16 16 17 17 17 17 16 16 16 15 15 14 14 13 13 14 14 15 15 15 15 15 15 14 14 14 14 14 14 14 14 12 12 12 10
18 16 16 16 17 18 17 20 18 18 18 17 17 17 17 17 17 17 17 17 17 17 16 15 15 15 15 14 15 15 16 16 16 15 15 14 14 14 14 14 14 14 14 14 14 14 14 12 14
16 15 16 16 17 19 18 20 18 18 19 18 17 17 17 16 17 17 17 17 17 16 16 15 15 15 15 15 14 15 15 15 15 14 14 14 14 13 14 14 14 14 14 14 14 14 14 14 15
15 16 16 18 19 21 18 18 18 19 17 17 16 16 16 16 16 16 16 16 17 16 16 15 15 15 14 14 14 15 15 15 14 15 15 14 14 14 14 14 14 14 14 14 14 14 14 14 15
16 17 20 21 21 20 19 19 17 16 16 15 16 16 16 16 16 16 17 17 17 17 16 15 15 15 14 14 14 14 14 14 14 14 14 14 14 14 14 14 14 14 14 13 13 14 14 14 15
17 16 19 23 23 21 18 20 16 16 15 14 14 15 15 16 16 16 16 16 16 16 16 15 15 15 14 14 14 14 14 14 14 13 13 14 13 13 13 14 14 14 14 14 14 14 14 14 15
17 18 16 20 21 22 19 17 16 17 17 16 16 16 16 16 16 16 16 16 16 16 16 15 15 15 15 14 14 14 13 13 14 14 13 13 13 13 13 13 14 14 14 14 14 15 15 15 15
16 15 18 19 24 25 20 19 17 18 17 17 16 16 16 16 16 16 15 16 15 15 15 15 15 15 14 14 14 14 14 14 14 14 14 14 14 14 14 14 14 14 14 14 14 14 14 15 15
17 17 17 17 19 22 24 20 16 15 15 17 16 15 15 15 15 15 15 15 15 15 15 15 15 15 15 14 14 14 14 14 14 14 14 14 14 14 14 14 14 14 14 14 14 14 14 14 14
16 16 16 18 20 20 20 18 15 14 15 15 15 14 14 14 14 14 15 15 15 15 15 15 15 15 14 14 14 14 14 14 14 14 14 14 14 14 14 14 14 14 14 14 14 15 14 15 15

GFSSGP_con_lsi_060.txt.gz
Lid_Strength_Index
-0 1 0 1 6 6 9 8 7 7 7 5 6 6 6 5 6 7 1 -0 -0 -0 -1 -1 -1 -2 -2 -2 -1 -1 -2 -2 -1 -1 -1 -1 -1 -1 -2 -2 -2 -2 -2 -2 -1 -0 -0 -1 -1
1 2 1 3 7 10 9 7 8 7 6 5 6 5 6 6 4 3 2 -0 -0 -1 -1 -1 -0 -1 -2 -2 -1 -1 -2 -2 -1 -1 -1 -1 -1 -1 -2 -2 -2 -2 -2 -2 -1 0 1 0 -1
2 3 3 5 7 10 9 7 7 6 6 5 6 5 5 5 3 2 0 -0 -1 -1 -1 -1 -1 -1 -2 -2 -1 -1 -2 -2 -1 -2 -2 -2 -2 -2 -2 -2 -2 -2 -2 -2 -1 0 1 1 -1
2 3 4 7 9 8 8 7 7 6 6 5 6 6 5 3 2 1 -0 -0 -0 -1 -1 -0 -1 -2 -2 -2 -2 -2 -2 -2 -1 -1 -1 -2 -2 -1 -1 -1 -2 -2 -2 -2 -1 0 0 0 -1
3 4 6 8 9 8 7 7 7 7 6 6 5 7 6 3 1 0 0 -0 0 -0 -1 -1 -0 -1 -1 -1 -1 -2 -2 -2 -2 -2 -2 -2 -2 -2 -1 -1 -1 -2 -2 -1 -0 1 1 -0 -1
4 5 8 9 9 8 7 7 7 7 7 6 6 6 6 4 2 0 -0 -0 -0 -0 -1 -1 1 0 -0 -1 -1 -1 -1 -1 -2 -2 -2 -2 -2 -2 -2 -2 -2 -2 -2 -2 -1 0 1 1 0
6 7 9 9 9 9 7 7 7 7 7 6 5 7 5 5 3 0 -0 -0 -1 -1 -1 -1 -1 -1 2 0 0 -0 -1 -1 -1 -1 -1 -2 -2 -1 -1 -2 -2 -2 -2 -2 -2 -1 0 1 0
5 6 10 9 9 9 7 7 7 7 7 6 5 7 7 5 3 0 -0 -0 -0 -0 -1 -1 -1 -0 -1 -1 1 1 -0 -0 -1 -1 -0 0 0 0 0 -0 -1 -1 -2 -2 -2 -1 1 3 2
6 8 10 10 9 9 7 7 7 6 7 6 6 7 7 6 4 3 3 3 3 4 5 3 -0 0 -1 -1 -0 1 1 1 1 1 2 2 -1 -1 -0 -0 -1 -1 -1 -2 -2 -0 2 5 5
7 8 10 9 8 8 7 7 7 7 7 7 7 7 7 6 5 5 6 6 5 5 5 5 5 1 -0 -1 -1 -1 -1 -2 -1 -1 -2 -1 -1 -0 0 1 0 -1 -1 -1 -1 1 3 2 5
7 9 9 9 8 7 7 8 7 8 9 8 8 8 8 7 7 7 6 6 6 6 5 4 4 4 1 -1 -1 -1 -2 -2 -2 -1 -1 -2 -1 1 0 -0 0 0 1 -0 -0 -0 0 2 3
9 8 8 7 7 8 8 7 8 8 9 9 8 9 8 8 8 8 8 7 7 6 5 4 4 4 2 -1 -1 -1 -1 -1 -2 -2 -1 -1 -1 1 1 1 1 0 1 1 1 1 0 1 2
8 8 8 7 8 8 8 9 9 10 9 9 9 9 9 9 9 9 8 8 7 7 5 4 3 2 2 -0 -1 -1 -1 -1 -0 0 -0 0 -1 0 1 1 1 1 1 2 2 2 1 0 1
8 8 8 8 8 9 9 9 9 10 9 10 10 10 10 10 10 9 9 8 8 7 7 6 3 2 -0 -0 1 2 3 3 3 4 3 1 1 0 -0 1 1 2 2 3 3 3 1 1 2
8 9 8 8 9 9 8 11 11 10 10 11 11 11 11 11 10 10 10 9 8 9 8 7 3 1 3 5 6 6 7 6 6 6 5 4 2 2 2 3 4 4 5 4 3 3 3 2 3
10 10 11 9 9 10 9 11 11 10 10 11 12 11 11 11 11 10 10 9 9 9 8 6 5 6 7 8 8 8 8 8 8 8 7 6 5 5 5 4 4 3 5 5 5 4 4 3 4
10 11 12 11 10 10 11 12 12 11 11 12 12 12 12 12 12 11 10 10 10 10 9 8 7 8 8 9 10 11 11 11 10 9 9 9 8 6 6 7 7 6 6 6 5 5 5 5 5
12 13 13 12 11 11 12 12 13 13 12 13 13 13 13 13 13 12 12 11 11 11 10 9 8 8 9 10 11 12 12 13 13 13 12 11 9 9 9 7 8 8 8 8 8 6 6 6 7
11 12 12 12 12 12 11 11 12 13 13 13 13 13 13 13 13 13 12 11 10 11 11 10 10 9 8 10 11 12 12 12 12 12 12 12 12 12 10 11 10 10 10 9 8 7 6 7 7
13 13 13 12 13 13 12 12 12 13 13 13 13 13 13 13 13 13 12 11 11 11 10 10 10 10 9 8 9 10 11 12 12 12 12 12 12 12 12 12 12 12 12 12 11 10 8 8 8
13 14 13 13 13 13 13 13 13 15 14 14 14 13 13 13 13 13 13 12 12 12 11 11 11 10 11 11 11 12 12 12 12 12 12 12 12 12 12 12 12 12 12 13 13 12 12 12 11
14 12 13 14 14 15 13 15 14 14 15 15 14 14 13 14 14 14 14 13 13 13 12 12 12 12 11 11 11 11 12 13 13 12 12 12 12 12 12 12 12 12 12 12 12 12 13 12 13
13 12 13 14 14 14 14 15 13 15 16 15 14 13 13 13 13 14 14 14 14 13 12 12 12 12 12 11 11 12 12 12 11 11 11 11 11 11 11 11 11 11 11 11 11 11 11 12 12
12 13 14 14 14 17 14 15 13 15 14 14 13 13 13 13 14 14 14 14 14 13 13 12 13 13 12 12 11 12 12 11 12 12 12 12 12 12 12 12 12 12 12 12 12 12 12 12 12
13 13 16 17 18 18 16 16 13 12 13 12 13 13 12 13 14 14 15 14 14 14 13 13 13 13 12 12 12 12 12 12 12 12 12 12 12 12 12 12 12 12 12 12 12 12 12 12 13
14 12 15 20 19 17 17 17 13 14 12 12 11 11 12 13 13 14 14 14 14 14 13 13 13 13 12 12 12 11 11 12 12 12 12 12 12 12 12 12 12 12 12 12 12 12 12 12 12
14 15 12 17 20 17 15 14 13 14 14 13 12 12 13 13 13 14 14 14 14 14 13 13 13 12 12 12 12 12 11 11 12 11 11 11 11 12 12 12 12 12 12 12 12 12 12 12 12
13 11 15 15 20 20 16 15 13 14 13 13 13 13 12 12 13 14 14 14 14 14 13 12 12 12 12 11 11 11 11 11 11 11 12 12 12 12 13 13 12 12 12 12 12 12 12 12 11
15 14 14 13 14 18 18 15 11 11 11 13 12 12 12 12 13 13 13 13 13 13 13 12 12 12 12 12 12 12 12 12 12 12 12 12 12 13 13 13 13 13 13 13 13 13 13 13 13
12 13 13 15 17 16 16 14 13 12 11 10 11 11 11 11 12 13 13 13 13 13 13 13 13 12 12 11 11 12 12 12 12 12 12 12 13 13 13 13 14 13 13 13 14 14 14 14 14

GFSSGP_con_lsi_063.txt.gz
Lid_Strength_Index
-1 -0 -0 2 7 6 9 8 6 7 6 5 5 5 6 5 6 8 1 -0 -0 -0 -1 -1 -1 -1 -2 -2 -1 -2 -2 -1 -1 -1 -1 -1 -1 -2 -2 -2 -2 -2 -2 -2 -1 -1 -1 -1 -1
0 1 1 3 8 10 9 7 7 6 5 5 5 5 5 6 3 2 2 -0 -0 -1 -1 -1 -0 -1 -2 -2 -2 -2 -2 -1 -1 -1 -1 -1 -1 -2 -2 -2 -2 -2 -2 -2 -1 -0 0 -1 -1
1 2 4 5 7 9 9 7 6 5 5 5 5 4 5 5 3 2 0 -0 -1 -1 -1 -1 -1 -1 -2 -2 -1 -2 -2 -2 -1 -2 -2 -2 -2 -2 -2 -2 -2 -2 -2 -2 -1 -0 0 -1 -1
1 2 3 7 9 8 7 7 6 6 5 4 5 6 4 2 2 1 -0 -0 -0 -1 -1 -0 -1 -2 -1 -1 -1 -2 -2 -2 -1 -1 -1 -1 -2 -1 -1 -2 -2 -2 -2 -1 -1 0 -0 -1 -1
2 3 7 8 8 7 6 6 6 6 5 5 5 6 5 3 0 0 0 -0 0 -0 -1 -1 -1 -1 -1 -2 -2 -2 -1 -2 -2 -1 -1 -1 -2 -2 -1 -1 -2 -2 -2 -1 -0 0 1 -0 -1
4 4 8 9 8 7 6 6 6 6 6 5 6 5 5 2 1 0 -0 -0 -0 -0 -1 -1 0 0 -1 -1 -1 -1 -2 -2 -2 -2 -2 -2 -2 -2 -2 -2 -2 -2 -2 -2 -1 -0 1 0 0
5 7 8 8 8 8 7 5 6 6 6 6 5 6 5 4 2 0 -0 -0 -0 -1 -1 -1 -1 -0 1 0 0 -0 -1 -1 -2 -2 -2 -2 -2 -1 -1 -2 -1 -2 -2 -2 -2 -1 1 0 0
4 6 9 8 9 8 6 6 6 6 6 5 5 6 6 5 3 0 -0 0 -0 -0 -0 -0 -0 -1 -1 -1 1 1 -0 -1 -1 -1 -0 0 -0 0 -1 -1 -2 -1 -2 -2 -1 -0 3 3 2
4 8 9 9 9 8 6 7 6 5 6 6 6 6 6 5 3 2 1 2 1 1 1 0 0 -0 -1 -1 0 1 1 1 0 0 2 2 -0 -0 -1 -0 -1 -1 -1 -1 -1 0 3 5 4
6 8 9 7 7 7 6 6 6 7 6 7 6 5 5 5 5 4 4 4 4 4 3 2 3 1 -0 -1 -1 -1 -1 -1 -1 -1 -1 -1 -1 -1 -0 1 -0 -1 -1 -1 -0 1 2 1 3
6 8 8 8 7 6 6 7 6 7 8 7 7 7 6 6 6 6 5 5 5 4 3 3 2 3 2 -1 -1 -1 -1 -1 -2 -1 -1 -1 -1 -0 -0 0 0 0 0 -1 -1 -1 -0 1 2
8 7 7 7 6 7 7 6 7 7 7 7 7 7 7 7 7 7 6 5 5 4 3 3 2 2 1 -1 -1 -1 -1 -1 -1 -1 -1 -1 -1 -1 -1 0 0 0 -0 0 0 -0 -1 0 1
7 7 7 6 6 6 7 7 7 8 8 8 8 8 8 8 7 7 6 5 5 5 4 3 2 1 2 -0 -1 0 2 2 3 3 1 -1 -1 -1 -0 0 1 1 1 1 1 1 -0 -0 0
7 7 7 7 7 7 8 7 8 8 8 8 8 9 9 9 8 7 7 6 5 5 5 3 1 2 1 3 4 5 5 5 5 5 4 2 1 0 1 2 2 2 2 2 2 2 1 1 1
7 8 7 7 7 8 8 9 10 8 8 9 9 9 9 9 9 9 8 6 6 6 5 4 3 3 4 6 7 7 7 7 7 6 5 5 4 4 4 4 5 5 5 5 4 3 2 2 2
9 8 10 7 8 8 8 10 8 9 9 9 9 9 9 10 10 9 8 7 8 7 6 6 5 6 7 8 8 9 8 8 8 7 7 5 5 5 5 6 6 5 5 4 4 5 3 3 4
9 11 10 9 8 9 9 10 10 10 10 10 10 10 10 10 10 10 9 8 9 9 7 7 7 8 9 10 11 10 10 10 10 9 8 8 7 6 6 6 7 7 7 8 7 7 7 6 5
10 10 10 10 9 10 10 10 11 11 10 10 10 10 11 11 11 10 9 9 10 9 8 8 8 9 10 11 11 11 11 11 10 10 9 9 8 9 10 9 9 8 9 8 8 7 6 7 7
9 10 10 9 9 11 10 10 9 11 11 11 11 11 11 11 11 11 10 9 10 10 10 9 9 9 9 11 11 11 11 11 10 10 10 10 10 9 9 9 9 10 10 10 9 7 8 8 8
10 11 11 10 11 12 11 11 9 10 11 11 11 11 11 11 11 11 10 9 10 10 10 10 10 9 9 10 10 10 11 11 11 11 11 11 10 10 10 10 10 10 11 11 10 10 10 10 10
11 11 11 12 12 12 12 12 11 10 11 12 11 10 11 11 12 11 10 9 10 10 10 10 9 9 9 9 10 10 10 11 11 12 12 11 11 11 11 11 10 10 10 11 11 11 11 11 11
13 10 11 12 13 14 11 15 10 11 13 13 12 12 12 11 11 11 11 10 10 11 10 10 10 9 9 9 9 9 11 12 12 12 12 12 11 11 11 11 10 10 10 11 11 10 11 11 12
12 11 12 12 13 13 12 15 12 12 13 13 12 12 11 12 12 12 12 12 11 11 10 10 10 10 10 10 10 10 11 11 12 12 12 12 11 11 11 11 11 11 11 11 11 11 11 11 12
11 12 12 13 13 16 13 14 13 13 13 12 12 12 12 12 12 12 12 12 12 11 11 11 12 12 11 11 11 11 11 12 12 12 12 12 12 12 11 12 12 12 12 12 12 12 12 12 12
12 13 17 18 18 18 14 13 12 10 11 10 12 12 11 12 12 13 14 13 13 12 12 12 12 12 11 11 11 11 11 11 12 12 12 12 12 12 12 12 12 12 12 12 12 12 12 12 12
13 12 16 21 20 16 16 17 13 11 10 11 10 11 11 12 13 13 13 13 13 13 12 12 12 12 12 12 12 12 12 12 12 12 12 12 12 12 12 12 12 12 12 12 12 12 12 12 12
13 14 11 16 18 17 15 13 11 13 13 12 11 11 11 12 13 13 13 13 13 13 13 12 12 12 12 12 12 12 12 12 12 12 12 12 12 13 13 13 13 13 12 12 12 12 12 12 11
12 11 16 15 20 20 15 14 13 14 13 13 12 11 11 11 12 13 13 13 13 13 12 12 12 12 12 12 12 12 11 11 11 12 12 13 13 13 13 13 13 13 13 13 13 12 12 12 12
14 14 13 13 14 18 18 14 10 10 11 12 12 11 11 11 12 12 13 13 13 12 12 12 12 12 12 12 12 12 12 12 12 12 12 12 13 13 13 14 14 13 14 13 14 13 13 14 13
11 13 13 15 17 15 15 14 11 10 9 10 11 10 10 10 11 12 12 13 13 13 13 13 12 12 12 12 11 12 12 12 12 12 13 13 14 14 14 14 14 14 14 14 14 15 14 15 14

GFSSGP_con_lsi_069.txt.gz
Lid_Strength_Index
0 4 3 5 10 11 13 12 10 9 10 10 8 7 8 8 8 11 4 2 -0 -0 -1 -1 -1 -1 -2 -2 -2 -2 -2 -2 -1 -1 -2 -2 -2 -2 -2 -2 -2 -2 -2 -2 -1 -2 -2 -2 -2
3 2 4 8 12 15 14 11 10 9 8 8 8 8 8 8 5 4 4 2 -0 -0 -1 -1 -0 -1 -2 -2 -2 -2 -2 -2 -1 -1 -2 -2 -2 -1 -2 -2 -2 -2 -2 -1 -1 -2 -2 -2 -2
2 3 8 10 13 15 13 12 10 9 9 9 9 7 7 7 4 4 3 2 -0 -0 -1 -0 -0 -2 -2 -2 -2 -2 -2 -2 -2 -2 -2 -2 -2 -2 -2 -2 -2 -2 -2 -2 -2 -2 -2 -2 -2
5 6 8 11 14 12 12 11 9 9 9 8 8 8 6 4 4 3 2 2 1 -0 -0 0 -1 -2 -2 -2 -2 -2 -2 -2 -2 -2 -2 -2 -2 -2 -2 -2 -2 -2 -2 -1 -1 -2 -2 -2 -2
6 8 11 13 13 12 11 10 9 9 9 9 8 9 8 6 3 2 2 1 2 0 -0 -1 -1 -1 -1 -2 -2 -2 -2 -2 -2 -2 -2 -2 -2 -2 -2 -2 -2 -2 -2 -2 -2 -2 -2 -2 -2
8 10 13 14 13 11 11 10 10 10 10 9 8 9 8 6 5 4 2 2 1 0 -0 -1 0 -1 -1 -1 -2 -2 -2 -2 -2 -2 -2 -2 -2 -2 -2 -2 -2 -2 -2 -1 -1 -1 -1 -1 -1
9 12 14 13 12 11 10 9 11 11 10 10 8 10 10 8 8 4 3 4 5 1 -0 -0 -0 0 1 -0 -1 -1 -1 -2 -2 -2 -2 -2 -2 -2 -2 -2 -2 -2 -2 0 1 1 1 1 1
9 11 12 13 13 12 10 9 9 9 10 8 8 10 11 9 7 5 5 6 7 7 6 1 0 1 0 0 1 1 -0 -1 -1 -1 -0 -0 -1 -1 -1 -1 -2 -2 -2 -1 1 1 2 2 2
9 13 14 13 13 11 10 10 9 9 9 9 9 10 9 8 7 4 6 7 9 8 8 7 6 2 2 0 1 2 1 1 0 1 2 2 0 1 -0 -0 -2 -2 -2 -2 -1 -1 1 2 1
11 13 13 12 11 11 9 10 10 11 10 10 10 9 8 8 8 7 7 8 7 7 7 7 7 7 4 0 0 0 0 0 0 0 2 1 1 1 1 1 -0 -1 -2 -2 -1 -1 0 3 5
10 13 12 11 9 9 9 10 9 11 12 10 10 10 9 9 9 9 8 8 8 7 5 4 4 5 7 3 1 0 0 1 1 1 1 -0 1 1 2 2 2 2 2 2 1 2 3 4 4
12 10 10 9 9 9 10 9 11 11 11 9 9 9 10 10 10 9 9 8 7 6 6 5 4 4 5 4 2 2 3 3 2 1 -0 1 1 1 1 2 2 2 3 2 3 3 3 4 4
11 10 9 9 9 10 9 10 11 10 10 9 9 9 10 10 10 9 8 7 7 7 6 5 4 4 3 1 2 4 5 5 5 4 3 0 0 1 1 2 3 4 3 3 3 3 3 4 4
10 10 10 9 9 9 10 11 10 11 10 10 10 11 11 10 10 10 9 9 8 7 7 5 4 4 2 4 4 6 6 6 6 5 5 3 2 3 4 4 4 4 4 4 4 4 4 4 4
10 12 11 10 9 10 10 12 11 11 11 11 11 11 11 11 11 11 9 9 9 8 8 7 5 5 5 5 6 6 6 7 7 6 6 5 5 5 6 6 7 6 6 6 6 6 6 7 7
12 12 14 11 10 11 11 14 11 11 11 12 12 12 12 12 12 11 10 10 9 9 8 8 7 8 8 7 8 8 8 7 7 7 7 7 7 6 7 7 8 7 6 6 6 7 9 9 9
14 16 14 12 10 11 12 13 12 11 11 13 13 13 13 13 13 12 11 11 10 9 9 10 9 10 10 10 9 9 9 9 9 8 8 8 8 8 8 8 9 9 10 9 8 10 10 13 12
15 15 13 13 12 12 13 13 12 12 12 12 13 13 13 13 13 12 12 11 11 10 10 10 10 10 10 10 10 11 11 11 11 11 11 10 9 10 11 11 11 11 11 12 11 12 13 14 14
13 14 15 13 12 14 13 13 12 12 13 13 14 13 13 13 13 12 12 12 12 11 10 10 10 10 10 10 11 12 13 13 12 12 12 12 12 11 12 12 12 13 13 14 13 13 14 14 14
13 15 15 13 12 14 14 14 12 12 12 12 12 13 14 15 14 12 13 13 12 12 10 10 10 10 10 10 11 12 13 13 13 13 13 12 13 13 13 13 13 14 14 14 15 15 15 15 14
14 14 14 14 14 14 15 16 15 12 12 12 11 12 13 14 14 13 13 13 13 12 10 10 10 11 11 12 12 13 13 13 14 14 14 14 13 13 13 14 14 14 14 15 15 16 16 16 15
15 12 13 13 15 18 15 18 16 14 14 13 12 13 13 14 14 13 13 14 13 11 10 10 11 11 11 12 12 13 14 15 16 15 15 15 14 14 14 14 14 15 15 15 15 15 16 16 17
14 12 13 14 16 17 17 18 18 14 14 14 13 14 14 14 14 13 13 13 13 11 11 11 11 11 11 12 13 14 15 15 15 16 16 16 15 15 15 15 15 15 15 16 16 16 16 16 16
12 13 14 15 16 20 17 17 16 14 12 11 13 14 15 14 14 13 13 13 13 12 12 12 12 12 12 13 14 15 15 16 16 16 16 16 16 16 16 15 16 16 16 16 17 17 17 17 17
13 16 19 20 21 20 16 17 15 13 13 12 14 14 15 14 14 14 14 15 14 13 13 13 13 14 14 14 15 15 15 15 16 16 16 16 16 17 17 16 17 16 16 16 16 17 17 17 17
15 15 19 23 22 20 18 19 16 13 14 13 13 13 14 14 14 15 15 15 15 14 14 14 14 15 15 14 15 14 15 15 15 15 16 16 16 16 16 16 16 16 16 16 16 16 16 17 17
16 16 13 16 24 22 18 17 14 14 15 15 15 14 15 14 15 15 15 15 15 15 15 15 15 15 14 14 14 14 15 15 15 16 16 16 16 16 16 17 17 17 17 17 17 17 18 18 18
14 13 17 15 22 22 19 19 16 16 16 15 15 14 14 14 15 15 15 16 15 15 16 15 15 15 15 15 14 14 15 15 15 16 16 17 17 16 17 17 17 17 17 17 17 18 18 18 18
16 16 15 14 18 22 23 18 14 13 14 15 14 14 14 14 15 16 15 15 15 15 15 15 15 15 15 15 15 15 15 15 16 16 17 17 17 17 17 17 17 17 18 18 18 18 18 19 18
13 14 13 17 20 18 19 17 15 14 13 13 13 13 13 14 15 16 16 16 15 16 16 15 15 15 15 15 15 15 15 16 16 17 17 17 17 17 17 17 17 17 18 18 18 19 19 19 19

GFSSGP_con_lsi_072.txt.gz
Lid_Strength_Index
1 4 4 6 10 12 14 13 12 10 11 10 7 7 8 8 9 11 5 1 -0 -0 -1 -1 -1 -2 -2 -2 -2 -1 -2 -1 -1 -2 -2 -2 -2 -2 -2 -2 -2 -2 -2 -2 -2 -2 -2 -2 -2
2 3 5 9 13 15 15 13 11 10 9 7 8 8 8 9 6 5 4 1 -0 -0 -1 -0 -0 -2 -2 -2 -2 -2 -2 -2 -1 -1 -2 -2 -2 -2 -2 -2 -2 -2 -2 -2 -2 -2 -2 -2 -2
3 4 8 11 14 15 14 12 11 10 8 9 9 7 7 8 5 5 3 1 -0 -0 -0 -0 -1 -2 -2 -2 -2 -2 -2 -2 -1 -1 -2 -2 -2 -2 -2 -2 -2 -2 -2 -2 -2 -2 -2 -2 -2
6 6 9 13 14 13 12 11 10 9 9 8 7 8 6 5 4 4 2 0 0 -0 -1 0 -1 -2 -2 -2 -2 -2 -2 -2 -2 -2 -2 -2 -2 -2 -2 -2 -2 -2 -2 -2 -2 -2 -2 -2 -2
7 9 12 14 15 12 12 10 10 10 10 9 9 9 9 6 5 3 2 1 1 0 -1 -0 -1 -1 -1 -2 -2 -2 -2 -2 -2 -1 -2 -2 -2 -2 -2 -2 -2 -2 -2 -2 -2 -2 -2 -2 -1
9 12 14 15 14 12 12 10 10 11 10 9 9 9 8 9 6 6 2 3 0 0 -0 -1 0 0 -1 -2 -2 -2 -2 -2 -2 -2 -2 -2 -2 -2 -2 -2 -2 -2 -1 -1 -1 -0 -0 -1 0
11 13 15 15 13 12 11 10 11 11 11 11 8 10 9 9 9 4 5 6 4 2 -0 -0 -0 0 1 -0 -0 -1 -1 -2 -2 -2 -2 -2 -2 -2 -2 -2 -2 -2 0 1 1 1 1 1 1
10 12 13 14 13 13 11 10 10 10 11 9 9 11 11 9 8 6 7 8 9 8 6 4 0 -0 -0 -0 1 1 -0 -1 -1 -1 -1 -0 -1 -1 -2 -1 -2 -2 -1 -1 0 1 1 1 1
10 14 15 14 13 12 10 11 10 10 10 10 9 10 9 8 7 7 9 10 10 9 8 8 7 4 2 -0 1 2 1 0 0 1 1 1 -0 0 0 -0 -2 -1 -2 -2 -1 -0 1 2 2
11 14 13 13 12 12 11 11 10 11 11 11 11 9 8 8 6 8 10 11 11 10 8 8 7 7 5 1 0 1 1 0 0 0 1 1 1 0 0 1 0 0 -1 -1 -1 -0 1 3 5
12 14 12 12 10 10 10 11 10 11 12 11 10 10 9 9 9 9 9 8 8 9 8 7 7 7 7 4 1 1 1 0 0 1 1 0 1 2 2 2 2 2 3 3 3 4 4 5 5
13 11 11 10 10 10 11 10 11 11 11 10 10 9 10 10 10 9 9 8 7 7 7 5 4 5 6 2 2 3 2 2 1 1 0 1 2 2 2 2 2 2 2 4 4 4 4 4 5
12 11 10 10 10 10 10 11 11 11 11 10 10 9 10 10 10 10 8 7 7 8 7 6 4 4 3 2 3 4 5 5 4 3 1 1 2 2 2 3 3 4 4 5 5 5 4 5 5
11 11 11 10 10 10 11 12 11 12 11 11 10 11 11 10 10 10 9 8 8 8 8 6 5 3 1 4 5 6 6 6 6 6 4 1 2 3 4 5 5 5 5 6 6 6 6 6 7
10 12 11 11 10 11 11 12 12 11 12 12 12 12 11 11 10 11 10 9 9 8 8 7 6 5 5 6 6 7 8 7 7 7 6 5 5 5 6 6 6 6 6 6 7 8 8 8 8
12 13 15 12 11 11 11 14 11 11 12 12 12 13 12 11 11 11 10 10 10 9 9 9 7 7 7 7 7 7 8 8 8 8 7 7 7 7 7 7 7 7 7 8 10 10 11 11 10
14 16 15 13 11 12 13 13 12 12 12 12 13 13 13 13 13 12 11 11 10 10 10 10 10 9 9 9 8 9 9 8 8 8 8 8 8 8 8 9 9 9 10 11 11 12 13 13 11
16 16 15 14 12 13 14 13 13 12 12 12 13 13 13 13 13 11 12 11 11 11 11 11 11 10 9 10 10 11 11 11 11 10 10 10 10 11 11 11 11 11 11 12 13 14 14 14 12
14 15 15 14 12 13 14 13 12 13 14 13 13 13 13 13 13 12 12 11 11 12 12 12 11 10 10 11 11 12 13 13 13 12 12 12 12 12 13 13 13 13 14 15 14 14 15 15 15
14 15 14 13 12 13 14 14 13 14 13 12 12 12 12 14 14 13 13 13 12 12 11 11 10 10 10 10 12 12 13 13 13 13 13 13 13 13 14 14 14 15 15 16 16 15 16 16 16
14 15 15 14 13 15 16 15 15 13 13 13 12 11 12 13 14 13 13 13 13 13 11 10 10 10 11 12 13 13 13 14 14 14 14 14 14 14 14 15 15 15 15 16 17 17 17 17 16
15 13 13 14 15 17 15 18 16 14 14 13 12 12 13 14 13 13 13 13 14 13 10 10 10 11 12 12 13 13 14 15 15 15 14 15 15 15 15 15 16 16 16 16 16 16 17 17 18
14 13 14 15 17 18 17 19 17 15 15 13 12 13 14 14 14 13 13 13 13 11 10 10 12 12 12 12 12 14 15 15 15 15 16 16 16 15 16 16 16 16 16 17 17 17 17 17 18
13 14 15 16 17 20 17 17 15 14 13 11 11 14 14 14 14 13 13 13 12 10 10 11 12 12 12 13 13 14 15 15 16 16 17 17 17 16 16 16 16 17 17 17 17 17 17 17 17
14 16 20 21 21 20 17 18 14 13 13 12 12 14 15 15 14 14 15 14 13 12 12 12 12 13 13 14 14 14 15 16 16 17 17 17 17 17 18 17 17 17 17 17 17 17 17 17 17
15 15 19 23 22 20 18 19 16 13 12 14 13 13 15 15 14 14 14 14 14 13 13 12 13 14 14 14 15 15 16 16 16 16 17 17 17 17 17 17 17 17 17 17 17 17 18 18 18
15 16 14 18 25 22 18 16 13 13 14 14 14 15 16 15 15 14 14 14 14 14 14 13 13 14 14 14 15 15 15 16 16 17 17 17 17 17 17 17 17 18 18 18 18 18 19 19 19
15 14 18 17 23 23 19 18 16 14 14 14 15 16 16 15 15 15 15 15 15 14 14 14 13 14 14 14 15 15 15 16 16 16 17 17 17 17 18 18 18 18 18 19 19 19 19 19 19
16 16 16 15 18 21 23 18 14 13 13 14 15 15 15 15 16 16 15 15 15 16 16 14 14 15 15 15 15 16 16 16 17 17 17 17 17 18 18 18 19 19 19 19 19 20 20 20 20
14 14 14 16 20 19 19 16 14 14 14 13 14 14 15 14 15 16 16 16 16 16 16 15 15 15 15 15 16 16 16 17 17 18 18 18 18 18 18 19 19 19 19 19 19 19 20 20 19

GFSSGP_con_lsi_075.txt.gz
Lid_Strength_Index
2 4 5 6 10 12 15 13 12 11 11 9 7 8 9 8 9 12 5 3 0 0 -0 -1 -1 -1 -1 -1 -1 -1 -1 -1 -2 -2 -2 -2 -2 -2 -2 -2 -2 -2 -2 -2 -2 -2 -2 -2 -2
3 4 6 10 13 16 15 13 11 10 8 8 8 8 8 9 6 5 4 1 -0 -0 -0 -0 -1 -1 -1 -2 -1 -2 -1 -1 -1 -2 -2 -2 -2 -2 -2 -2 -2 -2 -2 -2 -2 -2 -2 -1 -2
4 5 8 12 15 15 14 13 12 10 8 10 8 7 8 8 6 6 4 0 -0 0 -0 -0 -1 -1 -2 -2 -2 -2 -2 -1 -1 -2 -2 -2 -2 -2 -2 -2 -2 -2 -2 -2 -2 -2 -2 -2 -2
6 7 10 13 15 14 13 11 11 10 11 8 7 9 6 5 4 4 3 0 0 -0 -0 -0 -1 -1 -2 -2 -2 -2 -2 -2 -1 -2 -2 -2 -2 -2 -2 -2 -2 -2 -2 -2 -2 -2 -2 -1 -2
9 10 13 15 14 12 13 11 11 10 11 10 9 9 9 6 6 4 2 0 1 0 -0 -0 -1 -1 -1 -2 -2 -2 -2 -2 -1 -2 -2 -2 -2 -2 -2 -2 -2 -2 -2 -2 -2 -2 -2 -1 -1
10 12 14 16 15 13 12 11 11 12 11 10 9 9 8 8 8 5 3 2 1 0 -0 -1 1 0 -1 -1 -2 -2 -2 -2 -2 -2 -2 -2 -2 -2 -2 -2 -1 -1 -1 -1 -1 -1 -1 -0 1
11 14 15 15 14 13 11 10 11 11 11 11 8 10 9 9 8 5 6 5 4 1 -0 -0 -0 0 1 0 -0 -1 -2 -2 -1 -2 -2 -2 -2 -2 -2 -2 -1 -1 -0 -0 -0 -0 0 0 1
11 13 16 15 14 13 11 11 11 11 12 9 10 11 9 9 5 7 8 9 9 7 6 1 -0 -0 0 0 1 0 -0 -1 -1 -1 -1 -1 -1 -1 -2 -1 -2 -1 -2 -1 -0 0 0 0 1
11 14 16 15 13 12 11 12 11 11 10 11 10 10 10 8 7 8 9 10 10 8 7 7 6 3 1 -1 0 2 1 0 0 0 1 1 -0 0 0 -0 -1 -1 -2 -1 -1 -0 1 2 2
12 15 14 13 13 12 11 11 10 11 11 12 11 10 9 8 7 8 9 10 11 9 7 7 7 7 6 1 -0 0 1 -0 0 -0 0 0 0 0 0 2 1 1 -0 -0 -0 1 2 4 6
13 14 13 13 11 11 11 12 11 12 13 11 11 10 9 8 8 9 10 11 11 10 8 7 7 7 6 5 1 1 1 1 0 1 1 1 1 1 1 2 2 3 3 3 3 4 5 6 6
12 12 12 11 11 11 11 11 12 12 11 10 10 10 10 9 8 9 10 10 10 9 10 8 7 7 6 4 2 2 1 0 1 1 1 1 2 2 2 2 2 2 3 4 4 5 5 5 5
13 12 11 11 11 11 10 11 11 11 12 11 10 10 10 10 10 10 9 8 8 8 8 7 7 6 6 2 3 4 4 3 2 1 1 1 2 2 3 4 4 4 4 4 5 5 6 7 7
12 11 11 11 11 11 11 12 12 12 12 11 11 11 11 11 11 11 9 8 8 7 8 7 5 3 1 3 4 5 6 6 5 4 1 1 2 4 5 5 5 5 5 6 7 8 7 8 8
11 12 11 11 11 11 11 12 12 12 12 12 12 12 12 11 11 10 9 9 9 8 8 7 6 4 4 5 6 6 7 7 7 6 5 3 3 4 5 6 7 6 6 7 9 9 8 8 8
13 13 15 12 12 11 11 14 12 12 12 12 12 13 12 12 11 10 10 10 10 10 9 8 6 6 6 6 7 7 8 8 7 7 6 5 5 6 7 7 7 7 8 10 10 9 10 9 9
14 16 16 13 11 12 13 14 13 13 13 13 14 13 12 12 12 12 10 10 10 10 10 10 10 8 8 8 8 9 9 9 9 8 8 7 8 8 9 9 10 10 11 12 11 11 11 10 10
16 16 16 15 13 13 14 14 12 13 13 13 14 14 13 13 12 12 11 11 10 10 11 11 9 9 9 10 10 11 11 11 11 11 10 9 9 10 11 12 11 11 13 12 13 13 14 13 12
14 15 15 14 12 14 14 14 12 12 14 14 14 14 13 12 12 12 11 12 11 11 12 12 10 10 10 11 11 11 12 12 12 12 12 11 11 12 12 13 13 14 13 14 14 15 14 15 15
14 15 15 14 13 14 14 14 13 13 13 13 12 13 13 13 14 12 12 12 12 11 11 12 10 10 10 10 12 12 12 13 13 13 13 13 13 13 14 15 15 16 15 16 16 16 16 17 17
14 15 16 15 14 15 16 16 15 13 13 12 12 11 11 12 14 14 13 12 12 11 11 11 10 10 10 12 13 14 13 14 14 14 14 14 14 14 15 16 16 16 16 17 17 17 17 18 17
16 13 13 14 16 18 16 18 16 14 14 14 12 11 12 13 13 13 13 13 12 11 10 10 10 10 12 12 13 13 13 14 15 15 15 15 14 15 15 16 16 16 16 17 17 17 18 18 18
14 13 14 15 17 18 19 19 17 15 15 13 11 11 13 13 13 13 13 13 12 12 10 10 10 12 12 12 12 12 13 15 15 15 16 16 15 15 16 16 16 16 16 17 17 18 18 18 18
13 14 15 16 17 20 18 17 15 16 14 13 11 12 13 14 14 13 13 13 13 12 10 10 12 12 12 12 13 14 15 16 16 16 17 16 16 17 17 17 17 17 17 17 17 18 18 17 17
14 16 20 21 22 20 19 19 15 13 13 12 12 12 13 14 15 14 14 13 13 12 11 12 12 13 13 13 14 14 15 15 16 16 16 17 18 18 18 17 17 17 17 17 17 17 17 18 18
16 16 19 23 22 20 18 20 17 14 13 12 13 13 14 15 15 14 14 13 13 12 11 12 12 13 13 14 14 14 15 15 16 16 16 17 17 17 17 17 17 17 17 17 17 18 18 18 19
16 17 14 18 25 23 19 17 14 14 13 12 14 15 15 16 15 15 14 13 13 11 11 12 13 14 13 14 14 15 15 16 16 17 17 17 17 17 18 17 18 18 18 18 19 18 19 19 20
15 14 18 18 24 24 20 19 17 14 13 13 14 15 16 16 15 15 14 14 13 13 12 13 13 14 14 15 15 15 16 16 16 17 17 17 18 18 18 18 18 19 19 19 19 19 19 20 20
16 17 16 15 18 22 23 18 15 14 14 14 13 14 15 16 15 15 15 14 14 14 14 14 14 14 15 15 15 15 16 16 17 17 18 18 18 18 18 19 19 19 19 19 20 20 20 20 20
15 15 14 16 20 19 20 17 14 14 14 14 13 14 15 15 15 15 15 16 16 16 16 15 15 15 15 15 15 16 16 17 17 18 18 18 18 19 19 19 19 19 20 20 20 20 20 20 20